Vacaville, CA

7:00 PM PDT on April 19, 2018 (GMT -0700)
Nut Tree

Weather History for KVCB - May, 2013

Change the Weather History Date:

Saturday, May 4, 2013

  Actual Average Record
Temperature  
Mean Temperature 74 °F -  
Max Temperature 91 °F 78 °F 97 °F (1992)
Min Temperature 57 °F 47 °F 34 °F (1950)
Cooling Degree Days 8    
Growing Degree Days 24 (Base 50)    
Moisture  
Dew Point 33 °F    
Average Humidity 26    
Maximum Humidity 72    
Minimum Humidity 9    
Precipitation  
Precipitation 0.00 in - - ()
Sea Level Pressure  
Sea Level Pressure 29.64 in    
Wind  
Wind Speed 7 mph (NNW)    
Max Wind Speed 18 mph    
Max Gust Speed 33 mph    
Visibility 10 miles    
Events      
Averages and records for this station are not official NWS values.
T = Trace of Precipitation, MM = Missing Value Source: NWS Daily Summary

Daily Weather History Graph

Daily Weather History Graph

Search for Another Location

Airport or City:

Astronomy

May. 04, 2013 Rise Set
Actual Time 6:07 AM PDT 8:02 PM PDT
Civil Twilight 5:38 AM PDT 8:31 PM PDT
Nautical Twilight 5:03 AM PDT 9:06 PM PDT
Astronomical Twilight 4:25 AM PDT 9:44 PM PDT
Moon 3:04 AM PDT (5/4) 3:09 PM PDT (5/4)
Length of Visible Light 14h 53m
Length of Day
13h 55m
Waning Crescent, 26% of the Moon is Illuminated
May 4
Waning Crescent
May 9
New
May 17
First Quarter
May 24
Full
May 31
Last Quarter

Hourly Weather History & Observations

Time (PDT) Temp. Dew Point Humidity Pressure Visibility Wind Dir Wind Speed Gust Speed Precip Events Conditions
12:53 AM 63.0 °F 43.0 °F 48% 29.75 in 10.0 mi Calm Calm - N/A   Clear
1:53 AM 61.0 °F 42.1 °F 50% 29.74 in 10.0 mi Calm Calm - N/A   Clear
2:53 AM 63.0 °F 39.0 °F 41% 29.74 in 10.0 mi Calm Calm - N/A   Clear
3:53 AM 63.0 °F 36.0 °F 37% 29.73 in 10.0 mi Calm Calm - N/A   Clear
4:53 AM 75.9 °F 26.1 °F 16% 29.73 in 10.0 mi North 12.7 mph 19.6 mph N/A   Clear
5:53 AM 73.9 °F 25.0 °F 16% 29.73 in 10.0 mi NNW 9.2 mph - N/A   Clear
6:53 AM 77.0 °F 25.0 °F 15% 29.72 in 10.0 mi North 18.4 mph 26.5 mph N/A   Clear
7:53 AM 78.1 °F 25.0 °F 14% 29.71 in 10.0 mi North 18.4 mph 33.4 mph N/A   Clear
8:53 AM 80.1 °F 26.1 °F 14% 29.69 in 10.0 mi North 18.4 mph 32.2 mph N/A   Clear
9:53 AM 82.0 °F 27.0 °F 13% 29.68 in 10.0 mi North 12.7 mph 26.5 mph N/A   Clear
10:53 AM 84.0 °F 28.9 °F 14% 29.68 in 10.0 mi North 11.5 mph 25.3 mph N/A   Clear
11:53 AM 87.1 °F 27.0 °F 11% 29.66 in 10.0 mi North 11.5 mph 26.5 mph N/A   Clear
12:53 PM 87.1 °F 26.1 °F 11% 29.63 in 10.0 mi NNE 9.2 mph - N/A   Clear
1:53 PM 89.1 °F 27.0 °F 11% 29.61 in 10.0 mi North 15.0 mph 19.6 mph N/A   Clear
2:53 PM 90.0 °F 28.0 °F 11% 29.59 in 10.0 mi North 10.4 mph 18.4 mph N/A   Clear
3:53 PM 90.0 °F 25.0 °F 10% 29.56 in 10.0 mi NNE 6.9 mph - N/A   Clear
4:53 PM 89.1 °F 24.1 °F 9% 29.54 in 10.0 mi Variable 5.8 mph - N/A   Clear
5:53 PM 84.9 °F 37.9 °F 19% 29.53 in 10.0 mi WSW 10.4 mph 16.1 mph N/A   Clear
6:53 PM 80.1 °F 39.0 °F 23% 29.52 in 10.0 mi West 8.1 mph - N/A   Clear
7:53 PM 75.9 °F 39.9 °F 27% 29.53 in 10.0 mi WSW 6.9 mph - N/A   Clear
8:53 PM 72.0 °F 37.9 °F 29% 29.54 in 10.0 mi Calm Calm - N/A   Clear
9:53 PM 64.0 °F 46.0 °F 52% 29.55 in 10.0 mi SW 8.1 mph - N/A   Clear
10:53 PM 57.9 °F 48.9 °F 72% 29.55 in 10.0 mi SSW 12.7 mph 23.0 mph N/A   Clear
11:53 PM 63.0 °F 45.0 °F 52% 29.55 in 10.0 mi SW 13.8 mph 21.9 mph N/A   Clear